Time,TemperatureF,DewpointF,PressureIn,WindDirection,WindDirectionDegrees,WindSpeedMPH,WindSpeedGustMPH,Humidity,HourlyPrecipIn,Conditions,Clouds,dailyrainin,SoftwareType,DateUTC
2013-01-08 00:07:00,20.2,6.0,29.85,SSW,197,14.0,-999.0,55,-99.99,,,0.00,weatherlink.com 1.10,2013-01-08 07:07:00,
2013-01-08 00:22:00,19.5,5.0,29.85,West,259,6.0,-999.0,53,-99.99,,,0.00,weatherlink.com 1.10,2013-01-08 07:22:00,
2013-01-08 00:37:00,19.7,5.0,29.84,SSW,200,22.0,-999.0,52,-99.99,,,0.00,weatherlink.com 1.10,2013-01-08 07:37:00,
2013-01-08 00:52:00,19.5,3.0,29.82,SSW,202,28.0,-999.0,49,-99.99,,,0.00,weatherlink.com 1.10,2013-01-08 07:52:00,
2013-01-08 01:07:00,19.4,3.0,29.81,South,178,27.0,-999.0,50,-99.99,,,0.00,weatherlink.com 1.10,2013-01-08 08:07:00,
2013-01-08 01:23:00,19.6,3.0,29.79,SW,215,28.0,-999.0,49,-99.99,,,0.00,weatherlink.com 1.10,2013-01-08 08:23:00,
2013-01-08 01:38:00,19.0,2.0,29.80,South,188,26.0,-999.0,48,-99.99,,,0.00,weatherlink.com 1.10,2013-01-08 08:38:00,
2013-01-08 01:53:00,18.8,2.0,29.81,SSE,163,22.0,-999.0,48,-99.99,,,0.00,weatherlink.com 1.10,2013-01-08 08:53:00,
2013-01-08 02:08:00,18.3,5.0,29.82,South,176,22.0,-999.0,56,-99.99,,,0.00,weatherlink.com 1.10,2013-01-08 09:08:00,
2013-01-08 02:23:00,18.3,8.0,29.82,SW,224,23.0,-999.0,64,-99.99,,,0.00,weatherlink.com 1.10,2013-01-08 09:23:00,
2013-01-08 02:38:00,18.5,10.0,29.82,South,183,17.0,-999.0,69,-99.99,,,0.00,weatherlink.com 1.10,2013-01-08 09:38:00,
2013-01-08 02:53:00,18.5,10.0,29.85,SSW,202,21.0,-999.0,70,-99.99,,,0.00,weatherlink.com 1.10,2013-01-08 09:53:00,
2013-01-08 03:08:00,18.3,11.0,29.90,SSW,212,16.0,-999.0,72,-99.99,,,0.00,weatherlink.com 1.10,2013-01-08 10:08:00,
2013-01-08 03:23:00,17.9,11.0,29.88,SSW,206,19.0,-999.0,75,-99.99,,,0.00,weatherlink.com 1.10,2013-01-08 10:23:00,
2013-01-08 03:38:00,18.2,13.0,29.86,SW,215,26.0,-999.0,80,-99.99,,,0.00,weatherlink.com 1.10,2013-01-08 10:38:00,
2013-01-08 03:53:00,17.9,13.0,29.84,SSW,213,25.0,-999.0,82,-99.99,,,0.00,weatherlink.com 1.10,2013-01-08 10:53:00,
2013-01-08 04:09:00,17.6,13.0,29.86,South,186,16.0,-999.0,83,-99.99,,,0.00,weatherlink.com 1.10,2013-01-08 11:09:00,
2013-01-08 04:24:00,17.1,13.0,29.87,WSW,252,27.0,-999.0,85,-99.99,,,0.00,weatherlink.com 1.10,2013-01-08 11:24:00,
2013-01-08 04:39:00,16.6,13.0,29.87,SSW,211,26.0,-999.0,86,-99.99,,,0.00,weatherlink.com 1.10,2013-01-08 11:39:00,
2013-01-08 04:54:00,16.3,13.0,29.87,SSW,209,18.0,-999.0,88,-99.99,,,0.00,weatherlink.com 1.10,2013-01-08 11:54:00,
2013-01-08 05:09:00,16.4,14.0,29.86,SSW,197,25.0,-999.0,88,-99.99,,,0.00,weatherlink.com 1.10,2013-01-08 12:09:00,
2013-01-08 05:24:00,16.5,14.0,29.86,SSW,201,25.0,-999.0,89,-99.99,,,0.00,weatherlink.com 1.10,2013-01-08 12:24:00,
2013-01-08 05:39:00,16.4,14.0,29.86,SW,229,23.0,-999.0,90,-99.99,,,0.00,weatherlink.com 1.10,2013-01-08 12:39:00,
2013-01-08 05:54:00,16.1,14.0,29.89,SW,232,17.0,-999.0,91,-99.99,,,0.00,weatherlink.com 1.10,2013-01-08 12:54:00,
2013-01-08 06:09:00,16.1,14.0,29.86,WSW,258,14.0,-999.0,91,-99.99,,,0.00,weatherlink.com 1.10,2013-01-08 13:09:00,
2013-01-08 06:24:00,16.9,15.0,29.87,SSW,212,18.0,-999.0,90,-99.99,,,0.00,weatherlink.com 1.10,2013-01-08 13:24:00,
2013-01-08 06:39:00,16.7,14.0,29.88,SSW,213,24.0,-999.0,90,-99.99,,,0.00,weatherlink.com 1.10,2013-01-08 13:39:00,
2013-01-08 06:55:00,16.8,15.0,29.90,WSW,238,16.0,-999.0,91,-99.99,,,0.00,weatherlink.com 1.10,2013-01-08 13:55:00,
2013-01-08 07:10:00,17.2,15.0,29.89,SW,222,28.0,-999.0,90,-99.99,,,0.00,weatherlink.com 1.10,2013-01-08 14:10:00,
2013-01-08 07:25:00,17.3,15.0,29.90,SW,234,30.0,-999.0,89,-99.99,,,0.00,weatherlink.com 1.10,2013-01-08 14:25:00,
2013-01-08 07:40:00,18.2,15.0,29.93,SSW,205,26.0,-999.0,86,-99.99,,,0.00,weatherlink.com 1.10,2013-01-08 14:40:00,
2013-01-08 07:55:00,17.7,15.0,29.94,WSW,249,23.0,-999.0,87,-99.99,,,0.00,weatherlink.com 1.10,2013-01-08 14:55:00,
2013-01-08 08:10:00,17.0,14.0,29.93,SW,221,15.0,-999.0,89,-99.99,,,0.00,weatherlink.com 1.10,2013-01-08 15:10:00,
2013-01-08 08:25:00,17.1,14.0,29.94,SSW,210,18.0,-999.0,89,-99.99,,,0.00,weatherlink.com 1.10,2013-01-08 15:25:00,
2013-01-08 08:40:00,18.0,15.0,29.96,South,178,25.0,-999.0,86,-99.99,,,0.00,weatherlink.com 1.10,2013-01-08 15:40:00,
2013-01-08 08:54:00,18.8,15.0,29.98,SSW,210,16.0,-999.0,83,-99.99,,,0.00,weatherlink.com 1.10,2013-01-08 15:54:00,
2013-01-08 09:10:00,19.3,15.0,30.00,WSW,240,11.0,-999.0,82,-99.99,,,0.00,weatherlink.com 1.10,2013-01-08 16:10:00,
2013-01-08 09:26:00,19.9,15.0,30.00,SSW,213,14.0,-999.0,80,-99.99,,,0.00,weatherlink.com 1.10,2013-01-08 16:26:00,
2013-01-08 09:41:00,19.5,14.0,30.01,WSW,254,22.0,-999.0,80,-99.99,,,0.00,weatherlink.com 1.10,2013-01-08 16:41:00,
2013-01-08 09:56:00,20.4,15.0,30.01,WSW,254,13.0,-999.0,80,-99.99,,,0.00,weatherlink.com 1.10,2013-01-08 16:56:00,
2013-01-08 10:11:00,21.1,15.0,30.03,WSW,244,21.0,-999.0,78,-99.99,,,0.00,weatherlink.com 1.10,2013-01-08 17:11:00,
2013-01-08 10:26:00,21.3,15.0,30.01,SW,226,10.0,-999.0,78,-99.99,,,0.00,weatherlink.com 1.10,2013-01-08 17:26:00,
2013-01-08 10:41:00,21.9,16.0,29.98,West,279,15.0,-999.0,77,-99.99,,,0.00,weatherlink.com 1.10,2013-01-08 17:41:00,
2013-01-08 10:56:00,22.3,16.0,29.96,SW,214,32.0,-999.0,75,-99.99,,,0.00,weatherlink.com 1.10,2013-01-08 17:56:00,
2013-01-08 11:11:00,22.7,15.0,29.96,SW,225,46.0,-999.0,73,-99.99,,,0.00,weatherlink.com 1.10,2013-01-08 18:11:00,
2013-01-08 11:26:00,22.7,15.0,29.98,SSW,207,35.0,-999.0,73,-99.99,,,0.00,weatherlink.com 1.10,2013-01-08 18:26:00,
2013-01-08 11:41:00,22.2,15.0,29.96,South,188,24.0,-999.0,74,-99.99,,,0.00,weatherlink.com 1.10,2013-01-08 18:41:00,
2013-01-08 11:56:00,22.4,15.0,29.94,SSW,195,24.0,-999.0,74,-99.99,,,0.00,weatherlink.com 1.10,2013-01-08 18:56:00,
2013-01-08 12:12:00,23.0,16.0,29.97,SW,226,28.0,-999.0,74,-99.99,,,0.00,weatherlink.com 1.10,2013-01-08 19:12:00,
2013-01-08 12:27:00,23.1,16.0,29.97,SW,216,26.0,-999.0,75,-99.99,,,0.00,weatherlink.com 1.10,2013-01-08 19:27:00,
2013-01-08 12:42:00,22.6,16.0,29.98,SW,217,24.0,-999.0,77,-99.99,,,0.00,weatherlink.com 1.10,2013-01-08 19:42:00,
2013-01-08 12:57:00,22.5,16.0,30.00,SW,218,27.0,-999.0,76,-99.99,,,0.00,weatherlink.com 1.10,2013-01-08 19:57:00,
2013-01-08 13:12:00,22.7,16.0,30.00,SW,234,19.0,-999.0,76,-99.99,,,0.00,weatherlink.com 1.10,2013-01-08 20:12:00,
2013-01-08 13:27:00,22.7,16.0,30.00,SSW,205,27.0,-999.0,75,-99.99,,,0.00,weatherlink.com 1.10,2013-01-08 20:27:00,
2013-01-08 13:42:00,23.0,16.0,30.02,SW,223,29.0,-999.0,74,-99.99,,,0.00,weatherlink.com 1.10,2013-01-08 20:42:00,
2013-01-08 13:57:00,23.3,16.0,30.04,SSW,204,20.0,-999.0,74,-99.99,,,0.00,weatherlink.com 1.10,2013-01-08 20:57:00,
2013-01-08 14:12:00,23.5,16.0,30.05,SSW,201,16.0,-999.0,74,-99.99,,,0.00,weatherlink.com 1.10,2013-01-08 21:12:00,
2013-01-08 14:27:00,23.7,16.0,30.06,South,189,21.0,-999.0,72,-99.99,,,0.00,weatherlink.com 1.10,2013-01-08 21:27:00,
2013-01-08 14:42:00,23.0,16.0,30.07,SW,230,26.0,-999.0,73,-99.99,,,0.00,weatherlink.com 1.10,2013-01-08 21:42:00,
2013-01-08 14:57:00,23.1,15.0,30.08,SSW,205,20.0,-999.0,72,-99.99,,,0.00,weatherlink.com 1.10,2013-01-08 21:57:00,
2013-01-08 15:13:00,22.5,15.0,30.08,South,183,30.0,-999.0,74,-99.99,,,0.00,weatherlink.com 1.10,2013-01-08 22:13:00,
2013-01-08 15:28:00,22.0,15.0,30.08,SSW,209,21.0,-999.0,75,-99.99,,,0.00,weatherlink.com 1.10,2013-01-08 22:28:00,
2013-01-08 15:43:00,21.6,15.0,30.10,South,184,26.0,-999.0,76,-99.99,,,0.00,weatherlink.com 1.10,2013-01-08 22:43:00,
2013-01-08 15:58:00,21.1,15.0,30.14,SW,216,17.0,-999.0,78,-99.99,,,0.00,weatherlink.com 1.10,2013-01-08 22:58:00,
2013-01-08 16:13:00,21.5,15.0,30.18,SW,227,14.0,-999.0,76,-99.99,,,0.00,weatherlink.com 1.10,2013-01-08 23:13:00,
2013-01-08 16:28:00,20.2,15.0,30.18,South,178,20.0,-999.0,81,-99.99,,,0.00,weatherlink.com 1.10,2013-01-08 23:28:00,
2013-01-08 16:43:00,19.4,17.0,30.16,SSW,202,24.0,-999.0,90,-99.99,,,0.00,weatherlink.com 1.10,2013-01-08 23:43:00,
2013-01-08 16:58:00,18.8,15.0,30.15,SSW,211,24.0,-999.0,84,-99.99,,,0.00,weatherlink.com 1.10,2013-01-08 23:58:00,
2013-01-08 17:13:00,18.6,15.0,30.16,SSW,209,18.0,-999.0,84,-99.99,,,0.00,weatherlink.com 1.10,2013-01-09 00:13:00,
2013-01-08 17:28:00,18.3,15.0,30.18,South,191,31.0,-999.0,85,-99.99,,,0.00,weatherlink.com 1.10,2013-01-09 00:28:00,
2013-01-08 17:43:00,18.2,14.0,30.18,SSW,209,21.0,-999.0,85,-99.99,,,0.00,weatherlink.com 1.10,2013-01-09 00:43:00,
2013-01-08 17:58:00,17.7,14.0,30.18,SSE,152,30.0,-999.0,86,-99.99,,,0.00,weatherlink.com 1.10,2013-01-09 00:58:00,
2013-01-08 18:14:00,17.1,14.0,30.18,SSW,197,25.0,-999.0,87,-99.99,,,0.00,weatherlink.com 1.10,2013-01-09 01:14:00,
2013-01-08 18:29:00,17.1,14.0,30.18,SW,229,29.0,-999.0,88,-99.99,,,0.00,weatherlink.com 1.10,2013-01-09 01:29:00,
2013-01-08 18:44:00,17.4,14.0,30.19,SSW,203,23.0,-999.0,87,-99.99,,,0.00,weatherlink.com 1.10,2013-01-09 01:44:00,
2013-01-08 18:59:00,17.2,14.0,30.19,SSW,198,28.0,-999.0,88,-99.99,,,0.00,weatherlink.com 1.10,2013-01-09 01:59:00,
2013-01-08 19:14:00,17.2,15.0,30.20,South,184,25.0,-999.0,89,-99.99,,,0.00,weatherlink.com 1.10,2013-01-09 02:14:00,
2013-01-08 19:29:00,17.0,14.0,30.22,SSW,213,23.0,-999.0,89,-99.99,,,0.00,weatherlink.com 1.10,2013-01-09 02:29:00,
2013-01-08 19:44:00,17.1,14.0,30.23,SSW,197,24.0,-999.0,89,-99.99,,,0.00,weatherlink.com 1.10,2013-01-09 02:44:00,
2013-01-08 19:59:00,17.3,14.0,30.22,SW,219,30.0,-999.0,88,-99.99,,,0.00,weatherlink.com 1.10,2013-01-09 02:59:00,
2013-01-08 20:30:00,17.5,14.0,30.22,SW,234,24.0,-999.0,86,-99.99,,,0.00,weatherlink.com 1.10,2013-01-09 03:30:00,
2013-01-08 20:45:00,17.4,14.0,30.27,SSW,198,20.0,-999.0,86,-99.99,,,0.00,weatherlink.com 1.10,2013-01-09 03:45:00,
2013-01-08 21:00:00,17.5,14.0,30.29,South,179,32.0,-999.0,86,-99.99,,,0.00,weatherlink.com 1.10,2013-01-09 04:00:00,
2013-01-08 21:15:00,17.5,14.0,30.29,South,189,31.0,-999.0,87,-99.99,,,0.00,weatherlink.com 1.10,2013-01-09 04:15:00,
2013-01-08 21:30:00,17.6,14.0,30.29,SSW,203,25.0,-999.0,86,-99.99,,,0.00,weatherlink.com 1.10,2013-01-09 04:30:00,
2013-01-08 21:45:00,17.8,14.0,30.30,South,183,29.0,-999.0,86,-99.99,,,0.00,weatherlink.com 1.10,2013-01-09 04:45:00,
2013-01-08 22:15:00,17.6,14.0,30.36,South,190,20.0,-999.0,86,-99.99,,,0.00,weatherlink.com 1.10,2013-01-09 05:15:00,
2013-01-08 22:30:00,17.8,14.0,30.35,South,176,27.0,-999.0,85,-99.99,,,0.00,weatherlink.com 1.10,2013-01-09 05:30:00,
2013-01-08 22:45:00,18.1,14.0,30.36,SSW,195,31.0,-999.0,85,-99.99,,,0.00,weatherlink.com 1.10,2013-01-09 05:45:00,
2013-01-08 23:00:00,18.6,15.0,30.37,SSW,205,29.0,-999.0,84,-99.99,,,0.00,weatherlink.com 1.10,2013-01-09 06:00:00,
2013-01-08 23:16:00,18.6,14.0,30.37,SSW,212,26.0,-999.0,83,-99.99,,,0.00,weatherlink.com 1.10,2013-01-09 06:16:00,
2013-01-08 23:31:00,18.2,14.0,30.37,South,179,25.0,-999.0,84,-99.99,,,0.00,weatherlink.com 1.10,2013-01-09 06:31:00,
2013-01-08 23:46:00,18.2,14.0,30.35,SSW,193,29.0,-999.0,85,-99.99,,,0.00,weatherlink.com 1.10,2013-01-09 06:46:00,